Weather Service Report


450 
ASUS46 KPQR 202210
RWROR 

OREGON REGIONAL WEATHER ROUNDUP
NATIONAL WEATHER SERVICE PORTLAND OR
300 PM PDT MON SEP 20 2021

NOTE: "FAIR" INDICATES FEW OR NO CLOUDS BELOW 12,000 FEET WITH
NO SIGNIFICANT WEATHER AND/OR OBSTRUCTIONS TO VISIBILITY.

ORZ001>013-202300-
NORTHWEST OREGON

  
CITY           SKY/WX    TMP DP  RH WIND       PRES   REMARKS
ASTORIA        SUNNY     66  53  63 N9        30.33F                  
TILLAMOOK      SUNNY     66  54  63 NW12      30.33F                  
NEWPORT        SUNNY     63  54  72 N12       30.33F                  
FLORENCE       FAIR      67  54  62 NW12G17   30.27F                  
PORTLAND       MOSUNNY   68  51  54 NW10      30.33F                  
VANCOUVER WA   SUNNY     68  50  52 NW8       30.32F                  
SCAPPOOSE      SUNNY     70  50  49 N6        30.33F                  
HILLSBORO      MOSUNNY   68  49  50 VRB6      30.33F                  
AURORA         SUNNY     71  47  42 N10       30.32F                  
MCMINNVILLE    SUNNY     70  48  45 N8        30.32F                  
SALEM          SUNNY     72  48  42 N10G21    30.30F                  
CORVALLIS      SUNNY     71  50  47 NE14      30.30F                  
EUGENE         MOSUNNY   71  55  56 N16       30.29F                  
CRESWELL       SUNNY     70  54  56 NW9G16    30.26F                  
$$

ORZ021-028-202300-
SOUTHWEST OREGON

  
CITY           SKY/WX    TMP DP  RH WIND       PRES   REMARKS
NORTH BEND     SUNNY     65  54  67 N22G29    30.25F                  
BROOKINGS      SUNNY     85  35  16 N12G17    30.08F                  
ROSEBURG       SUNNY     71  50  47 N7        30.23F                  
SEXTON SUMMIT  SUNNY     66  36  32 VRB3      30.28F                  
GRANTS PASS    FAIR      77  39  25 CALM      30.21F                  
MEDFORD        SUNNY     76  41  28 N5        30.18F                  
$$

ORZ014>016-041-202300-
COLUMBIA GORGE

  
CITY           SKY/WX    TMP DP  RH WIND       PRES   REMARKS
TROUTDALE      SUNNY     72  51  47 VRB5      30.31F                  
HOOD RIVER     SUNNY     70  45  40 CALM      30.31F                  
THE DALLES     SUNNY     74  45  35 NW6       30.30F                  
$$

ORZ029>031-041-044-049-050-061>064-502-503-505>511-202300-
EASTERN OREGON

  
CITY           SKY/WX    TMP DP  RH WIND       PRES   REMARKS
MADRAS         SUNNY     68  36  30 S3        30.34F                  
REDMOND        SUNNY     69  36  29 E7        30.32F                  
BEND           SUNNY     70  32  24 N5        30.34F                  
PRINEVILLE     SUNNY     66  36  32 VRB5G12   30.33F                  
KLAMATH FALLS  SUNNY     68  32  26 NE12      30.29F                  
LAKEVIEW       SUNNY     68  29  23 N9        30.32F                  
HERMISTON      SUNNY     71  39  31 SW3       30.33F                  
PENDLETON      SUNNY     68  38  33 W5        30.34S                  
JOHN DAY       SUNNY     65  36  34 N5        30.35F                  
MEACHAM        NOT AVBL                                               
LA GRANDE      SUNNY     64  39  39 VRB5      30.36F                  
BAKER CITY     SUNNY     62  39  42 CALM      30.36F                  
BURNS          SUNNY     63  31  30 CALM      30.37F                  
ROME             N/A     64  32  30 VRB6      30.35S                  
ONTARIO        SUNNY     69  36  29 MISG      30.35F                  
$$


OTHER REGIONAL REPORTS
  
CITY           SKY/WX    TMP DP  RH WIND       PRES   REMARKS
SEATTLE        MOSUNNY   66  47  50 SW8       30.36F                  
SPOKANE        MOSUNNY   62  38  40 SW13      30.34F                  
VANCOUVER BC   MOSUNNY   63  52  67 SE6       30.38F                  
PRINCE GEORGE  SUNNY     57  39  51 S18G26    30.13F                  
DAWSON CREEK   MOSUNNY   57  36  44 SW16G25   30.04S                  
WHITEHORSE     CLOUDY    43  37  81 SE20G31   29.50F                  
BOISE          SUNNY     66  34  30 NW10      30.33F                  
REDDING        SUNNY     91  34  13 N17G28    29.97F                  
SAN FRANCISCO  SUNNY     85  43  22 VRB3      29.93F                  

$$

  

Return to Home page


Western Regional Climate Center, wrcc@dri.edu